SCP
0 0 0 0 0 0 0 0 0 0 0 0 0 0 0 0 0 0 -0 0 0 0 0 0 0 0 0 0 0 0 -0 0 0 0 0 0 0 0 0 0 0 0 0 0 0 0 0
0 0 0 0 0 0 0 0 0 0 0 0 0 0 0 0 0 0 -0 -0 0 0 0 0 0 0 0 0 0 0 0 0 0 0 0 0 0 0 0 0 0 0 0 0 0 0 0
0 0 0 0 0 0 0 0 0 0 0 0 0 0 0 0 0 -0 -0 -0 0 0 0 0 0 0 -0 0 0 0 0 0 0 0 0 0 0 0 0 0 0 0 0 0 0 0 0
0 0 0 0 0 0 0 0 0 0 0 0 0 0 0 0 0 0 -0 0 0 0 0 0 0 0 0 0 0 0 0 0 0 -0 -0 0 0 0 0 0 0 0 0 0 0 0 0
0 0 0 0 0 0 0 0 0 0 0 0 0 0 0 0 0 0 -0 0 0 0 0 0 0 0 0 -0 0 0 0 0 0 0 0 0 0 0 0 0 0 0 0 0 0 0 0
0 0 0 0 0 0 0 0 0 0 0 0 0 0 0 0 0 0 0 0 0 0 0 0 0 0 0 0 -0 0 0 0 0 0 0 0 0 0 0 0 0 0 0 0 0 0 0
0 0 0 0 0 0 0 0 0 0 0 0 -0 0 0 0 0 0 0 0 0 0 0 0 0 0 -0 -0 0 0 0 -0 -0 0 0 0 0 0 0 0 0 0 0 0 0 0 0
0 0 0 0 0 0 0 0 0 0 0 0 -0 -0 0 0 0 0 0 0 0 0 0 0 0 0 -0 -0 0 0 -0 -0 -0 0 -0 0 0 0 0 0 0 0 0 0 0 0 0
0 0 0 0 0 -0 0 0 0 0 0 0 0 -0 0 0 0 0 0 0 0 0 0 0 0 0 0 0 0 0 -0 -0 -0 0 0 0 0 0 0 0 0 0 0 0 0 0 0
0 0 0 0 0 0 0 0 0 0 0 0 0 0 0 0 0 0 0 0 0 0 0 0 0 0 0 -0 0 0 -0 -0 -0 0 0 0 0 0 0 0 0 0 0 0 0 0 0
0 0 0 0 0 0 0 0 0 0 0 0 0 0 0 0 0 0 0 0 0 0 0 0 0 0 0 0 0 0 0 0 0 0 0 0 0 0 0 0 0 0 0 0 0 0 0
0 0 0 0 0 0 0 0 0 0 0 0 0 0 0 0 0 0 0 0 0 0 0 0 0 0 0 0 0 0 0 0 0 0 0 0 0 0 0 0 0 0 0 0 0 0 0
0 0 0 0 0 0 0 0 0 0 0 0 0 0 0 0 0 0 0 0 0 0 0 0 0 0 0 0 0 0 0 0 0 0 0 0 0 0 0 0 0 0 0 0 0 0 0
0 0 0 0 0 0 0 0 0 0 0 0 0 0 0 0 0 0 0 0 0 0 0 0 0 0 0 0 0 0 0 0 0 0 0 0 0 0 0 0 0 0 0 0 0 0 0
0 0 0 0 0 0 0 0 0 0 0 0 0 0 0 0 0 0 0 0 0 0 0 0 0 0 0 0 0 0 0 0 0 0 0 0 0 0 0 0 0 0 0 0 0 0 0
0 0 0 0 0 0 0 0 0 0 0 0 0 0 0 0 0 0 0 0 0 0 0 0 0 0 0 0 0 0 0 0 0 0 0 0 0 0 0 0 0 0 0 0 0 0 0
0 0 0 0 0 0 0 0 0 0 0 0 0 0 0 0 0 0 0 0 0 0 0 0 0 0 0 0 0 0 0 0 0 0 0 0 0 0 0 0 0 0 0 0 0 0 0
0 0 0 0 0 0 0 0 0 0 0 0 0 0 0 0 0 0 0 0 0 0 0 0 0 0 0 0 0 0 0 0 0 0 0 0 0 0 0 0 0 0 -0 0 0 0 0
0 0 0 0 0 0 0 0 0 0 0 0 0 0 0 0 0 0 0 0 0 0 0 0 0 0 0 0 0 0 0 0 0 0 0 0 0 0 0 0 0 0 0 -0 0 0 0
0 0 0 0 0 0 0 0 0 0 0 0 0 0 0 0 0 0 0 0 0 0 0 0 0 0 0 0 0 0 0 0 0 0 0 0 0 0 0 0 0 0 0 0 0 0 0
0 0 0 0 0 0 0 0 0 0 0 0 0 0 0 0 0 0 0 0 0 0 0 0 0 0 0 0 0 0 0 0 0 0 0 0 0 0 0 0 0 0 0 0 0 0 0
0 0 0 0 0 0 0 0 0 0 0 0 0 0 0 0 0 0 0 0 0 0 0 0 0 0 0 0 0 0 0 0 0 0 0 0 0 0 0 0 0 0 0 0 0 0 0
0 0 0 0 0 0 0 0 0 0 0 0 0 0 0 0 0 0 0 0 0 0 0 0 0 0 0 0 0 0 0 0 0 0 0 0 0 0 0 0 0 0 0 0 0 0 0
0 0 0 0 0 0 0 0 0 0 0 0 0 0 0 0 0 0 0 0 0 0 0 0 0 0 0 0 0 0 0 0 0 0 0 0 0 0 0 0 0 0 0 0 0 0 0
0 0 0 0 0 0 0 0 0 0 0 0 0 0 0 0 0 0 0 0 0 0 0 0 0 0 0 0 0 0 0 0 0 0 0 0 0 0 0 0 0 0 0 0 0 0 0
0 0 0 0 0 0 0 0 0 0 0 0 0 0 0 0 0 0 0 0 0 0 0 0 0 0 0 0 0 0 0 0 0 0 0 0 0 0 0 0 0 0 0 0 0 0 0
0 0 0 0 0 0 0 0 0 0 0 0 0 0 0 0 0 0 0 0 0 0 0 0 0 0 0 0 0 0 0 0 0 0 0 0 0 0 0 0 0 0 0 0 0 0 0
0 0 0 0 0 0 0 0 0 0 0 0 0 0 0 0 0 0 0 0 0 0 0 0 0 0 0 0 0 0 0 0 0 0 0 0 0 0 0 0 0 0 0 0 0 0 0
0 0 0 0 0 0 0 0 0 0 0 0 0 0 0 0 0 0 0 0 0 0 0 0 0 0 0 0 0 0 0 0 0 0 0 0 0 0 0 0 0 0 0 0 0 0 0
Wind_Speed_500mb
24 25 26 24 17 15 17 21 25 29 33 37 39 40 43 40 41 42 34 29 29 23 22 41 44 35 25 30 26 40 34 22 17 7 3 3 6 3 5 8 11 18 25 38 45 48 46
23 24 23 20 13 13 16 20 24 30 35 37 39 40 42 38 39 39 32 26 31 38 35 36 34 31 24 22 29 30 36 18 14 12 2 5 7 5 14 10 5 18 27 24 28 35 32
25 24 23 17 11 12 15 19 24 29 34 38 39 40 40 36 38 37 27 21 25 27 29 42 42 39 70 33 32 30 41 18 13 14 12 4 13 9 4 9 13 9 19 17 19 24 8
24 23 21 12 9 11 15 20 25 30 34 37 40 40 39 35 33 32 19 18 24 28 25 26 26 27 24 44 34 29 42 5 9 6 3 8 1 11 9 17 15 10 5 8 17 35 28
23 23 20 9 8 11 15 20 25 29 33 37 39 40 37 34 30 30 18 23 23 29 39 20 17 18 11 33 70 51 35 35 24 10 7 7 9 18 26 10 6 19 9 22 21 22 19
22 20 16 6 8 12 16 20 25 30 33 37 39 38 38 35 25 27 7 21 32 21 20 20 31 16 35 24 61 47 37 42 33 20 22 21 17 9 12 15 4 11 8 10 11 9 22
21 20 13 5 6 11 16 20 25 30 34 37 38 37 36 35 21 27 5 13 7 19 66 47 39 21 18 15 55 56 34 57 47 40 12 23 21 11 11 10 4 6 2 5 8 8 10
21 20 15 4 7 10 16 20 24 31 36 38 38 35 36 32 18 28 13 10 18 32 28 42 40 54 14 26 26 60 41 19 46 25 14 12 20 13 10 11 12 11 3 9 10 20 11
16 15 13 8 7 9 16 20 25 31 36 40 40 36 32 26 12 31 27 25 41 31 14 10 21 42 45 30 48 56 44 26 22 20 14 15 10 16 14 15 23 12 6 9 13 9 11
18 14 12 8 10 10 15 19 25 31 37 40 39 35 30 21 10 26 16 20 35 15 9 17 16 21 53 13 19 45 34 15 16 13 10 10 19 10 10 9 16 8 10 15 17 15 12
17 15 11 9 10 11 17 21 25 31 38 39 37 31 27 21 15 17 10 10 34 7 4 9 9 13 31 25 15 36 31 26 12 9 12 6 12 10 11 15 13 15 14 17 27 27 2
20 15 11 12 11 11 15 20 25 32 35 35 33 24 21 20 17 19 12 22 20 6 3 7 7 10 10 18 20 12 38 18 16 7 10 7 12 7 3 22 7 20 14 21 7 3 3
23 17 12 13 15 16 16 20 26 31 34 32 27 13 24 23 17 17 8 10 6 10 4 7 6 7 6 12 13 13 16 25 10 9 13 14 13 12 6 19 19 13 10 7 8 6 6
21 21 14 13 18 18 17 22 26 32 33 30 21 9 19 18 15 11 2 6 8 3 1 3 4 3 9 15 8 14 7 7 19 11 3 7 9 11 22 6 11 22 5 4 9 6 11
21 22 15 11 22 12 23 25 26 30 32 26 14 3 13 15 10 4 3 11 4 4 3 3 6 8 7 8 5 13 9 6 8 11 6 4 9 21 7 6 9 12 5 2 7 6 4
25 24 18 17 24 11 28 26 27 28 29 21 10 3 12 12 5 1 11 9 5 4 4 6 4 2 5 8 11 12 7 7 10 10 3 6 9 6 12 12 18 9 7 8 4 7 8
29 25 22 20 18 13 28 25 27 27 25 14 7 4 10 8 1 15 8 6 8 10 7 5 5 5 5 5 2 5 7 5 10 13 9 5 6 12 8 10 4 8 8 8 3 0 5
35 25 24 23 14 17 27 24 27 24 19 8 4 2 14 6 13 9 5 14 12 6 13 7 8 7 5 5 3 4 5 2 17 11 3 3 6 7 4 8 16 9 5 7 5 9 2
41 27 32 24 13 18 26 23 25 23 16 5 3 2 11 2 8 4 5 8 7 5 5 4 4 5 3 5 7 3 7 10 21 11 4 5 4 7 5 6 1 10 5 2 5 1 7
40 33 30 21 15 20 23 24 22 19 12 1 4 3 11 17 13 13 11 9 8 9 6 11 6 8 8 4 5 4 2 5 7 19 18 5 3 12 10 6 4 5 7 8 2 2 3
39 35 28 21 21 23 25 23 20 15 8 6 4 3 3 4 4 10 8 6 11 8 6 8 4 7 11 6 4 6 3 6 7 16 10 8 5 1 5 2 5 3 4 10 3 7 8
48 44 28 24 25 23 25 24 17 13 8 13 10 12 11 10 18 13 7 7 9 7 8 4 11 9 9 11 13 14 8 3 6 7 6 8 3 5 7 4 4 4 9 7 8 4 10
47 44 27 28 28 26 24 25 16 12 12 12 13 19 12 15 8 9 9 12 12 22 7 10 20 9 8 11 12 6 7 13 9 8 2 6 5 5 8 2 4 9 11 6 9 8 10
56 45 33 31 32 25 26 26 16 12 15 22 21 25 11 4 6 7 12 7 16 11 15 12 16 11 15 19 28 21 20 16 11 8 4 7 7 4 5 6 6 9 6 9 12 18 15
60 46 39 34 30 30 31 22 15 12 15 20 26 20 13 5 14 9 22 13 26 18 8 13 9 15 29 26 7 7 6 8 6 5 1 4 8 3 5 5 10 7 6 9 9 12 12
56 52 44 36 33 34 29 19 11 13 13 19 29 23 10 28 13 19 15 20 9 6 6 8 19 21 27 7 5 8 7 6 5 10 11 8 10 7 6 6 10 11 6 14 15 7 19
61 51 43 39 38 36 24 14 13 13 14 19 26 23 11 13 24 36 9 16 18 11 7 11 17 15 23 4 4 6 6 7 4 8 9 3 6 8 4 6 15 11 21 24 11 11 25
53 47 48 46 34 33 20 14 15 14 17 20 19 25 16 10 36 28 21 20 24 20 9 22 12 7 5 4 6 7 6 9 4 6 10 11 10 6 5 5 13 32 17 13 10 8 15
51 49 48 37 36 28 19 17 15 15 16 17 17 24 17 8 20 26 23 21 23 25 19 39 3 13 22 7 2 6 5 5 6 6 3 4 12 8 16 12 5 73 24 28 20 24 28
Wind_Direction_500mb
17 16 14 14 35 45 39 32 24 20 17 15 13 11 7 7 9 9 18 32 40 44 77 106 109 104 93 74 25 5 345 342 333 295 344 325 247 218 248 314 313 258 271 278 296 290 285
10 14 13 16 40 43 36 28 23 18 13 12 12 10 8 8 10 11 24 42 70 83 93 102 98 97 86 73 15 347 360 356 342 356 291 237 207 278 266 280 291 312 325 327 323 313 295
3 9 11 15 42 42 31 23 19 15 12 8 9 8 8 10 9 13 29 53 87 108 92 102 100 79 60 36 5 343 13 31 19 5 6 254 238 237 293 309 285 274 297 296 288 332 321
357 1 9 22 34 37 25 19 15 12 10 7 5 6 8 8 12 16 43 69 101 103 98 100 97 89 81 28 17 7 10 56 30 227 274 32 141 272 315 300 326 310 355 358 9 19 345
353 356 3 23 30 15 22 16 11 8 6 6 4 2 6 7 16 20 80 83 115 103 86 107 79 81 38 2 23 21 35 16 356 24 123 78 28 58 23 0 335 39 352 347 338 357 352
346 352 359 17 17 5 9 13 7 4 4 3 3 1 1 1 13 18 155 98 88 115 101 57 45 66 26 31 26 42 47 34 23 84 77 41 52 61 23 38 8 313 328 313 319 5 54
339 341 350 359 16 359 358 7 4 358 359 0 4 359 356 352 4 19 43 167 145 59 63 76 66 81 51 29 35 32 22 37 57 48 36 23 60 40 41 61 154 215 267 273 312 350 103
335 338 334 329 350 347 353 357 1 357 355 355 0 0 353 349 358 19 40 156 134 130 89 69 60 44 82 48 43 25 40 66 33 39 19 41 45 331 106 65 56 30 30 315 295 315 322
326 333 329 300 309 340 346 350 358 355 352 353 355 358 357 347 334 6 41 117 133 128 96 59 41 35 17 85 39 16 36 42 48 30 37 81 324 333 68 35 22 339 193 274 255 290 262
315 321 310 282 290 334 336 346 355 354 350 353 352 355 2 5 351 358 34 138 156 143 91 333 360 16 19 137 39 27 47 48 36 20 8 57 339 30 70 51 13 290 284 312 302 335 288
309 309 305 277 285 322 330 341 352 353 349 349 349 354 1 9 1 12 17 142 176 152 26 349 13 17 47 83 10 24 27 50 69 35 63 293 328 351 72 349 323 252 299 279 282 268 31
292 297 290 266 282 299 325 337 349 348 346 344 344 353 358 3 8 17 70 132 152 64 282 345 26 10 37 45 42 70 34 61 46 66 28 330 309 57 351 334 265 299 310 297 276 108 31
287 293 288 279 284 297 324 334 345 344 341 340 340 340 1 2 3 4 92 153 32 89 339 353 340 23 56 11 18 35 67 47 32 17 20 331 328 357 44 348 324 344 16 328 336 344 241
279 288 283 276 282 295 326 329 341 340 334 339 338 321 353 352 341 338 39 68 86 146 29 11 346 332 79 16 33 19 71 59 27 30 60 20 324 2 343 250 283 289 217 230 302 282 280
267 273 269 265 273 311 318 318 336 336 331 340 337 339 357 338 330 318 108 55 127 151 145 8 358 67 32 7 50 40 79 45 44 22 114 17 264 319 335 353 2 315 37 293 280 284 317
253 260 260 262 270 332 302 312 330 330 333 337 328 295 349 355 12 71 73 112 121 98 96 72 112 80 77 15 37 41 32 337 343 10 217 277 318 259 320 3 25 69 332 26 9 308 290
243 254 265 265 274 305 297 309 323 328 339 337 304 293 339 338 235 60 98 126 119 112 122 111 156 106 92 73 96 37 2 86 353 331 23 55 142 296 356 22 333 356 13 358 181 15 295
238 243 263 261 261 294 292 308 317 329 342 336 268 31 347 347 54 60 103 133 113 107 78 61 85 93 112 109 82 121 134 46 9 332 14 228 191 273 338 59 87 71 145 124 124 304 308
243 252 263 253 261 282 288 304 313 329 339 330 206 312 357 338 125 113 106 80 93 104 54 95 113 87 75 110 90 92 127 112 41 32 60 307 319 336 296 277 225 67 45 259 213 115 237
231 241 238 242 254 265 284 296 309 323 326 268 153 31 32 63 85 123 126 141 121 85 79 78 110 87 81 83 54 200 53 92 28 20 14 121 160 175 209 240 103 27 7 344 242 115 270
226 233 240 235 244 259 276 291 298 315 300 198 147 154 139 122 32 101 98 130 141 148 109 94 62 119 143 119 56 174 52 353 56 11 36 76 197 60 358 12 74 137 321 329 328 222 186
226 236 238 240 246 253 269 283 293 302 263 206 177 148 111 94 114 93 22 204 148 129 130 184 141 147 151 151 181 197 136 133 205 343 62 5 259 90 321 278 133 272 253 280 242 237 282
220 233 226 233 238 250 267 282 290 284 242 203 181 160 157 156 124 98 203 168 174 129 39 141 151 116 119 162 149 139 177 127 129 123 62 67 99 68 276 290 67 342 225 216 258 206 166
218 226 215 224 236 249 268 276 284 272 241 218 197 169 147 192 134 172 152 122 144 151 144 146 147 116 138 149 123 110 101 95 89 82 126 128 94 98 227 32 8 239 219 174 224 251 220
215 218 211 223 231 245 262 266 270 264 232 215 198 180 160 127 138 128 141 118 113 115 109 143 145 140 151 145 79 56 349 26 350 221 8 110 114 64 138 192 291 333 201 179 134 281 200
212 219 209 218 224 239 251 256 272 254 215 190 195 196 180 131 223 152 140 159 144 137 26 130 140 156 163 132 103 142 190 170 278 336 110 86 82 119 62 137 218 234 215 154 128 306 210
214 209 210 203 216 240 243 248 242 225 201 192 191 203 186 116 156 156 164 174 158 140 130 144 161 165 190 129 119 157 210 168 192 182 190 26 8 155 175 219 285 217 155 151 80 239 198
206 197 206 204 213 235 238 237 224 207 199 199 200 198 197 152 164 184 172 157 161 173 148 152 105 206 110 147 155 184 139 207 118 204 189 167 146 201 83 61 290 159 126 163 207 239 264
189 204 202 189 218 225 234 225 212 202 199 202 194 196 197 167 161 182 190 189 187 179 160 170 212 160 170 102 167 115 156 148 149 241 339 298 191 181 182 214 196 182 210 222 256 278 285
Wind_Speed_850mb
24 25 26 24 17 15 17 21 25 29 33 37 39 40 43 40 41 42 34 29 29 23 22 41 44 35 25 30 26 40 34 22 17 7 3 3 6 3 5 8 11 18 25 38 45 48 46
23 24 23 20 13 13 16 20 24 30 35 37 39 40 42 38 39 39 32 26 31 38 35 36 34 31 24 22 29 30 36 18 14 12 2 5 7 5 14 10 5 18 27 24 28 35 32
25 24 23 17 11 12 15 19 24 29 34 38 39 40 40 36 38 37 27 21 25 27 29 42 42 39 70 33 32 30 41 18 13 14 12 4 13 9 4 9 13 9 19 17 19 24 8
24 23 21 12 9 11 15 20 25 30 34 37 40 40 39 35 33 32 19 18 24 28 25 26 26 27 24 44 34 29 42 5 9 6 3 8 1 11 9 17 15 10 5 8 17 35 28
23 23 20 9 8 11 15 20 25 29 33 37 39 40 37 34 30 30 18 23 23 29 39 20 17 18 11 33 70 51 35 35 24 10 7 7 9 18 26 10 6 19 9 22 21 22 19
22 20 16 6 8 12 16 20 25 30 33 37 39 38 38 35 25 27 7 21 32 21 20 20 31 16 35 24 61 47 37 42 33 20 22 21 17 9 12 15 4 11 8 10 11 9 22
21 20 13 5 6 11 16 20 25 30 34 37 38 37 36 35 21 27 5 13 7 19 66 47 39 21 18 15 55 56 34 57 47 40 12 23 21 11 11 10 4 6 2 5 8 8 10
21 20 15 4 7 10 16 20 24 31 36 38 38 35 36 32 18 28 13 10 18 32 28 42 40 54 14 26 26 60 41 19 46 25 14 12 20 13 10 11 12 11 3 9 10 20 11
16 15 13 8 7 9 16 20 25 31 36 40 40 36 32 26 12 31 27 25 41 31 14 10 21 42 45 30 48 56 44 26 22 20 14 15 10 16 14 15 23 12 6 9 13 9 11
18 14 12 8 10 10 15 19 25 31 37 40 39 35 30 21 10 26 16 20 35 15 9 17 16 21 53 13 19 45 34 15 16 13 10 10 19 10 10 9 16 8 10 15 17 15 12
17 15 11 9 10 11 17 21 25 31 38 39 37 31 27 21 15 17 10 10 34 7 4 9 9 13 31 25 15 36 31 26 12 9 12 6 12 10 11 15 13 15 14 17 27 27 2
20 15 11 12 11 11 15 20 25 32 35 35 33 24 21 20 17 19 12 22 20 6 3 7 7 10 10 18 20 12 38 18 16 7 10 7 12 7 3 22 7 20 14 21 7 3 3
23 17 12 13 15 16 16 20 26 31 34 32 27 13 24 23 17 17 8 10 6 10 4 7 6 7 6 12 13 13 16 25 10 9 13 14 13 12 6 19 19 13 10 7 8 6 6
21 21 14 13 18 18 17 22 26 32 33 30 21 9 19 18 15 11 2 6 8 3 1 3 4 3 9 15 8 14 7 7 19 11 3 7 9 11 22 6 11 22 5 4 9 6 11
21 22 15 11 22 12 23 25 26 30 32 26 14 3 13 15 10 4 3 11 4 4 3 3 6 8 7 8 5 13 9 6 8 11 6 4 9 21 7 6 9 12 5 2 7 6 4
25 24 18 17 24 11 28 26 27 28 29 21 10 3 12 12 5 1 11 9 5 4 4 6 4 2 5 8 11 12 7 7 10 10 3 6 9 6 12 12 18 9 7 8 4 7 8
29 25 22 20 18 13 28 25 27 27 25 14 7 4 10 8 1 15 8 6 8 10 7 5 5 5 5 5 2 5 7 5 10 13 9 5 6 12 8 10 4 8 8 8 3 0 5
35 25 24 23 14 17 27 24 27 24 19 8 4 2 14 6 13 9 5 14 12 6 13 7 8 7 5 5 3 4 5 2 17 11 3 3 6 7 4 8 16 9 5 7 5 9 2
41 27 32 24 13 18 26 23 25 23 16 5 3 2 11 2 8 4 5 8 7 5 5 4 4 5 3 5 7 3 7 10 21 11 4 5 4 7 5 6 1 10 5 2 5 1 7
40 33 30 21 15 20 23 24 22 19 12 1 4 3 11 17 13 13 11 9 8 9 6 11 6 8 8 4 5 4 2 5 7 19 18 5 3 12 10 6 4 5 7 8 2 2 3
39 35 28 21 21 23 25 23 20 15 8 6 4 3 3 4 4 10 8 6 11 8 6 8 4 7 11 6 4 6 3 6 7 16 10 8 5 1 5 2 5 3 4 10 3 7 8
48 44 28 24 25 23 25 24 17 13 8 13 10 12 11 10 18 13 7 7 9 7 8 4 11 9 9 11 13 14 8 3 6 7 6 8 3 5 7 4 4 4 9 7 8 4 10
47 44 27 28 28 26 24 25 16 12 12 12 13 19 12 15 8 9 9 12 12 22 7 10 20 9 8 11 12 6 7 13 9 8 2 6 5 5 8 2 4 9 11 6 9 8 10
56 45 33 31 32 25 26 26 16 12 15 22 21 25 11 4 6 7 12 7 16 11 15 12 16 11 15 19 28 21 20 16 11 8 4 7 7 4 5 6 6 9 6 9 12 18 15
60 46 39 34 30 30 31 22 15 12 15 20 26 20 13 5 14 9 22 13 26 18 8 13 9 15 29 26 7 7 6 8 6 5 1 4 8 3 5 5 10 7 6 9 9 12 12
56 52 44 36 33 34 29 19 11 13 13 19 29 23 10 28 13 19 15 20 9 6 6 8 19 21 27 7 5 8 7 6 5 10 11 8 10 7 6 6 10 11 6 14 15 7 19
61 51 43 39 38 36 24 14 13 13 14 19 26 23 11 13 24 36 9 16 18 11 7 11 17 15 23 4 4 6 6 7 4 8 9 3 6 8 4 6 15 11 21 24 11 11 25
53 47 48 46 34 33 20 14 15 14 17 20 19 25 16 10 36 28 21 20 24 20 9 22 12 7 5 4 6 7 6 9 4 6 10 11 10 6 5 5 13 32 17 13 10 8 15
51 49 48 37 36 28 19 17 15 15 16 17 17 24 17 8 20 26 23 21 23 25 19 39 3 13 22 7 2 6 5 5 6 6 3 4 12 8 16 12 5 73 24 28 20 24 28
Wind_Direction_850mb
17 16 14 14 35 45 39 32 24 20 17 15 13 11 7 7 9 9 18 32 40 44 77 106 109 104 93 74 25 5 345 342 333 295 344 325 247 218 248 314 313 258 271 278 296 290 285
10 14 13 16 40 43 36 28 23 18 13 12 12 10 8 8 10 11 24 42 70 83 93 102 98 97 86 73 15 347 360 356 342 356 291 237 207 278 266 280 291 312 325 327 323 313 295
3 9 11 15 42 42 31 23 19 15 12 8 9 8 8 10 9 13 29 53 87 108 92 102 100 79 60 36 5 343 13 31 19 5 6 254 238 237 293 309 285 274 297 296 288 332 321
357 1 9 22 34 37 25 19 15 12 10 7 5 6 8 8 12 16 43 69 101 103 98 100 97 89 81 28 17 7 10 56 30 227 274 32 141 272 315 300 326 310 355 358 9 19 345
353 356 3 23 30 15 22 16 11 8 6 6 4 2 6 7 16 20 80 83 115 103 86 107 79 81 38 2 23 21 35 16 356 24 123 78 28 58 23 0 335 39 352 347 338 357 352
346 352 359 17 17 5 9 13 7 4 4 3 3 1 1 1 13 18 155 98 88 115 101 57 45 66 26 31 26 42 47 34 23 84 77 41 52 61 23 38 8 313 328 313 319 5 54
339 341 350 359 16 359 358 7 4 358 359 0 4 359 356 352 4 19 43 167 145 59 63 76 66 81 51 29 35 32 22 37 57 48 36 23 60 40 41 61 154 215 267 273 312 350 103
335 338 334 329 350 347 353 357 1 357 355 355 0 0 353 349 358 19 40 156 134 130 89 69 60 44 82 48 43 25 40 66 33 39 19 41 45 331 106 65 56 30 30 315 295 315 322
326 333 329 300 309 340 346 350 358 355 352 353 355 358 357 347 334 6 41 117 133 128 96 59 41 35 17 85 39 16 36 42 48 30 37 81 324 333 68 35 22 339 193 274 255 290 262
315 321 310 282 290 334 336 346 355 354 350 353 352 355 2 5 351 358 34 138 156 143 91 333 360 16 19 137 39 27 47 48 36 20 8 57 339 30 70 51 13 290 284 312 302 335 288
309 309 305 277 285 322 330 341 352 353 349 349 349 354 1 9 1 12 17 142 176 152 26 349 13 17 47 83 10 24 27 50 69 35 63 293 328 351 72 349 323 252 299 279 282 268 31
292 297 290 266 282 299 325 337 349 348 346 344 344 353 358 3 8 17 70 132 152 64 282 345 26 10 37 45 42 70 34 61 46 66 28 330 309 57 351 334 265 299 310 297 276 108 31
287 293 288 279 284 297 324 334 345 344 341 340 340 340 1 2 3 4 92 153 32 89 339 353 340 23 56 11 18 35 67 47 32 17 20 331 328 357 44 348 324 344 16 328 336 344 241
279 288 283 276 282 295 326 329 341 340 334 339 338 321 353 352 341 338 39 68 86 146 29 11 346 332 79 16 33 19 71 59 27 30 60 20 324 2 343 250 283 289 217 230 302 282 280
267 273 269 265 273 311 318 318 336 336 331 340 337 339 357 338 330 318 108 55 127 151 145 8 358 67 32 7 50 40 79 45 44 22 114 17 264 319 335 353 2 315 37 293 280 284 317
253 260 260 262 270 332 302 312 330 330 333 337 328 295 349 355 12 71 73 112 121 98 96 72 112 80 77 15 37 41 32 337 343 10 217 277 318 259 320 3 25 69 332 26 9 308 290
243 254 265 265 274 305 297 309 323 328 339 337 304 293 339 338 235 60 98 126 119 112 122 111 156 106 92 73 96 37 2 86 353 331 23 55 142 296 356 22 333 356 13 358 181 15 295
238 243 263 261 261 294 292 308 317 329 342 336 268 31 347 347 54 60 103 133 113 107 78 61 85 93 112 109 82 121 134 46 9 332 14 228 191 273 338 59 87 71 145 124 124 304 308
243 252 263 253 261 282 288 304 313 329 339 330 206 312 357 338 125 113 106 80 93 104 54 95 113 87 75 110 90 92 127 112 41 32 60 307 319 336 296 277 225 67 45 259 213 115 237
231 241 238 242 254 265 284 296 309 323 326 268 153 31 32 63 85 123 126 141 121 85 79 78 110 87 81 83 54 200 53 92 28 20 14 121 160 175 209 240 103 27 7 344 242 115 270
226 233 240 235 244 259 276 291 298 315 300 198 147 154 139 122 32 101 98 130 141 148 109 94 62 119 143 119 56 174 52 353 56 11 36 76 197 60 358 12 74 137 321 329 328 222 186
226 236 238 240 246 253 269 283 293 302 263 206 177 148 111 94 114 93 22 204 148 129 130 184 141 147 151 151 181 197 136 133 205 343 62 5 259 90 321 278 133 272 253 280 242 237 282
220 233 226 233 238 250 267 282 290 284 242 203 181 160 157 156 124 98 203 168 174 129 39 141 151 116 119 162 149 139 177 127 129 123 62 67 99 68 276 290 67 342 225 216 258 206 166
218 226 215 224 236 249 268 276 284 272 241 218 197 169 147 192 134 172 152 122 144 151 144 146 147 116 138 149 123 110 101 95 89 82 126 128 94 98 227 32 8 239 219 174 224 251 220
215 218 211 223 231 245 262 266 270 264 232 215 198 180 160 127 138 128 141 118 113 115 109 143 145 140 151 145 79 56 349 26 350 221 8 110 114 64 138 192 291 333 201 179 134 281 200
212 219 209 218 224 239 251 256 272 254 215 190 195 196 180 131 223 152 140 159 144 137 26 130 140 156 163 132 103 142 190 170 278 336 110 86 82 119 62 137 218 234 215 154 128 306 210
214 209 210 203 216 240 243 248 242 225 201 192 191 203 186 116 156 156 164 174 158 140 130 144 161 165 190 129 119 157 210 168 192 182 190 26 8 155 175 219 285 217 155 151 80 239 198
206 197 206 204 213 235 238 237 224 207 199 199 200 198 197 152 164 184 172 157 161 173 148 152 105 206 110 147 155 184 139 207 118 204 189 167 146 201 83 61 290 159 126 163 207 239 264
189 204 202 189 218 225 234 225 212 202 199 202 194 196 197 167 161 182 190 189 187 179 160 170 212 160 170 102 167 115 156 148 149 241 339 298 191 181 182 214 196 182 210 222 256 278 285